Change the Weather History Date:

Wednesday, November 20, 2013

  Actual Average Record
Temperature  
Mean Temperature 54 °F -  
Max Temperature 59 °F 69 °F 79 °F (1988)
Min Temperature 50 °F 48 °F 30 °F (1967)
Degree Days  
Heating Degree Days 10    
Growing Degree Days 4 (Base 50)    
Moisture  
Dew Point 46 °F    
Average Humidity 71    
Maximum Humidity 77    
Minimum Humidity 62    
Precipitation  
Precipitation 0.00 in - - ()
Sea Level Pressure  
Sea Level Pressure 30.24 in    
Wind  
Wind Speed 11 mph (North)    
Max Wind Speed 16 mph    
Max Gust Speed 22 mph    
Visibility 10 miles    
Events      
Averages and records for this station are not official NWS values.
T = Trace of Precipitation, MM = Missing Value Source: NWS Daily Summary

Daily Weather History Graph

Daily Weather History Graph

Search for Another Location

Airport or City:

Trip Planner

Search our weather history database for the weather conditions in past years. The results will help you decide how hot, cold, wet, or windy it might be!

Date:

Astronomy

Nov. 20, 2013 Rise Set
Actual Time 6:56 AM EST 5:20 PM EST
Civil Twilight 6:30 AM EST 5:46 PM EST
Nautical Twilight 6:00 AM EST 6:16 PM EST
Astronomical Twilight 5:31 AM EST 6:45 PM EST
Moon 8:01 PM EST (11/20) 9:20 AM EST (11/20)
Length of Visible Light 11h 16m
Length of Day
10h 23m
Waning Gibbous, 91% of the Moon is Illuminated
Nov 20
Waning Gibbous
Nov 25
Last Quarter
Dec 2
New
Dec 9
First Quarter
Dec 17
Full

Hourly Weather History & Observations

Time (EST) Temp. Dew Point Humidity Pressure Visibility Wind Dir Wind Speed Gust Speed Precip Events Conditions
12:15 AM 53.6 °F 42.8 °F 67% 30.18 in 10.0 mi North 8.1 mph - 0.00 in   Clear
12:35 AM 53.6 °F 41.0 °F 62% 30.17 in 10.0 mi North 9.2 mph 16.1 mph 0.00 in   Clear
12:55 AM 53.6 °F 41.0 °F 62% 30.17 in 10.0 mi North 10.4 mph - 0.00 in   Clear
1:15 AM 53.6 °F 42.8 °F 67% 30.16 in 10.0 mi North 10.4 mph - 0.00 in   Clear
1:35 AM 53.6 °F 42.8 °F 67% 30.16 in 10.0 mi North 11.5 mph 16.1 mph 0.00 in   Clear
1:55 AM 53.6 °F 41.0 °F 62% 30.17 in 10.0 mi North 9.2 mph 16.1 mph 0.00 in   Clear
2:15 AM 53.6 °F 42.8 °F 67% 30.17 in 10.0 mi North 11.5 mph - 0.00 in   Scattered Clouds
2:35 AM 53.6 °F 42.8 °F 67% 30.17 in 10.0 mi North 11.5 mph 19.6 mph 0.00 in   Clear
2:55 AM 53.6 °F 42.8 °F 67% 30.17 in 10.0 mi North 9.2 mph 18.4 mph 0.00 in   Clear
3:15 AM 53.6 °F 44.6 °F 72% 30.18 in 10.0 mi North 10.4 mph 18.4 mph 0.00 in   Partly Cloudy
3:35 AM 53.6 °F 42.8 °F 67% 30.17 in 10.0 mi North 13.8 mph 17.3 mph 0.00 in   Scattered Clouds
3:55 AM 53.6 °F 44.6 °F 72% 30.18 in 10.0 mi North 11.5 mph 16.1 mph 0.00 in   Scattered Clouds
4:15 AM 53.6 °F 44.6 °F 72% 30.18 in 10.0 mi North 10.4 mph - 0.00 in   Scattered Clouds
4:35 AM 53.6 °F 44.6 °F 72% 30.18 in 10.0 mi North 13.8 mph 17.3 mph 0.00 in   Partly Cloudy
4:55 AM 53.6 °F 46.4 °F 77% 30.19 in 10.0 mi North 11.5 mph 17.3 mph 0.00 in   Partly Cloudy
5:15 AM 53.6 °F 46.4 °F 77% 30.19 in 10.0 mi North 11.5 mph 19.6 mph 0.00 in   Partly Cloudy
5:35 AM 53.6 °F 44.6 °F 72% 30.20 in 10.0 mi North 16.1 mph 21.9 mph 0.00 in   Scattered Clouds
6:50 AM 50.0 °F 42.8 °F 76% 30.20 in 10.0 mi North 11.5 mph 18.4 mph N/A   Mostly Cloudy
7:50 AM 50.0 °F 41.0 °F 71% 30.24 in 10.0 mi North 11.5 mph 18.4 mph N/A   Mostly Cloudy
8:50 AM 50.0 °F 41.0 °F 71% 30.25 in 10.0 mi North 9.2 mph - N/A   Mostly Cloudy
9:50 AM 51.8 °F 42.8 °F 71% 30.27 in 10.0 mi NNE 9.2 mph - N/A   Overcast
10:50 AM 55.4 °F 44.6 °F 67% 30.29 in 10.0 mi North 12.7 mph 19.6 mph N/A   Overcast
11:50 AM 55.4 °F 44.6 °F 67% 30.26 in 10.0 mi North 13.8 mph - N/A   Overcast
12:50 PM 57.2 °F 46.4 °F 67% 30.24 in 10.0 mi North 15.0 mph 18.4 mph N/A   Overcast
1:50 PM 57.2 °F 48.2 °F 72% 30.23 in 10.0 mi NNE 12.7 mph 20.7 mph N/A   Overcast
2:50 PM 57.2 °F 50.0 °F 77% 30.22 in 10.0 mi NNE 11.5 mph 19.6 mph N/A   Overcast
3:50 PM 59.0 °F 51.8 °F 77% 30.24 in 10.0 mi NNE 11.5 mph - N/A   Overcast
4:50 PM 59.0 °F 51.8 °F 77% 30.25 in 10.0 mi NNE 11.5 mph - N/A   Overcast
5:50 PM 59.0 °F 50.0 °F 72% 30.26 in 10.0 mi North 10.4 mph 18.4 mph N/A   Overcast
6:50 PM 57.2 °F 50.0 °F 77% 30.28 in 10.0 mi North 12.7 mph 19.6 mph N/A   Overcast
7:50 PM 57.2 °F 50.0 °F 77% 30.30 in 10.0 mi North 8.1 mph - N/A   Mostly Cloudy
8:15 PM 57.2 °F 48.2 °F 72% 30.31 in 10.0 mi North 10.4 mph - 0.00 in   Mostly Cloudy
8:35 PM 57.2 °F 48.2 °F 72% 30.31 in 10.0 mi North 9.2 mph - 0.00 in   Mostly Cloudy
8:55 PM 57.2 °F 48.2 °F 72% 30.31 in 10.0 mi North 9.2 mph - 0.00 in   Scattered Clouds
9:15 PM 57.2 °F 46.4 °F 67% 30.30 in 10.0 mi North 9.2 mph - 0.00 in   Mostly Cloudy
9:35 PM 57.2 °F 48.2 °F 72% 30.31 in 10.0 mi North 11.5 mph 16.1 mph 0.00 in   Partly Cloudy
9:55 PM 57.2 °F 48.2 °F 72% 30.31 in 10.0 mi North 10.4 mph 16.1 mph 0.00 in   Mostly Cloudy
10:15 PM 55.4 °F 48.2 °F 77% 30.31 in 10.0 mi North 9.2 mph - 0.00 in   Partly Cloudy
10:35 PM 57.2 °F 48.2 °F 72% 30.31 in 10.0 mi North 10.4 mph - 0.00 in   Mostly Cloudy
10:55 PM 57.2 °F 48.2 °F 72% 30.30 in 10.0 mi North 9.2 mph - 0.00 in   Overcast
11:15 PM 57.2 °F 48.2 °F 72% 30.30 in 10.0 mi North 10.4 mph - 0.00 in   Overcast
11:35 PM 57.2 °F 48.2 °F 72% 30.30 in 10.0 mi North 10.4 mph 16.1 mph 0.00 in   Overcast
11:55 PM 57.2 °F 48.2 °F 72% 30.30 in 10.0 mi North 11.5 mph 17.3 mph 0.00 in   Overcast